Flag for Netherlands Weather past 2 weeks in Maastricht, Netherlands

Now
36 °F

Passing clouds.


Feels Like: 27 °F
Forecast: 38 / 44 °F
Wind: 14 mph from Southwest

Location: Maastricht Airport Zuid Limburg

Current Time: Jan 26, 2015 at 7:36:12 AM

Latest Report: Jan 26, 2015 at 6:55 AM


Visibility: 1 mi

Pressure: 30.18 "Hg

Humidity: 100%

Dew point: 36 °F

Location of MaastrichtLocation

Historic Weather in Maastricht — Graph

°F

Maastricht temperature yesterday

Maximum temperature yesterday: 36 °F (at 10:55 AM)
Minimum temperature yesterday: 30 °F (at 1:25 AM)
Average temperature yesterday: 34 °F

Past Weeks' High & Low Weather Summary

 TemperatureHumidityPressure
High50 °F (Jan 13, 9:55 AM)100% (Jan 13, 4:25 PM)30.42 "Hg (Jan 13, 4:25 PM)
Low28 °F (Jan 19, 7:25 AM)61% (Jan 18, 1:55 PM)29.42 "Hg (Jan 15, 2:25 PM)
Average37 °F86%29.95 "Hg
* Reported Jan 11 6:25 AM — Jan 26 6:25 AM, Maastricht, Weather by CustomWeather, © 2014

Note: Actual official high and low records may vary slightly from our data, if they occured in-between our weather recording intervals... More about our weather records

Advertising

Maastricht weather history for previous 24 hours

 ConditionsComfort  
Time TempWeatherWind HumidityBarometerVisibility
6:25 AM
Jan 26
36 °FLow clouds.13 mph100%30.21 "Hg4 mi
5:55 AM36 °FLow clouds.13 mph100%30.21 "Hg4 mi
5:25 AM36 °FLow clouds.13 mph100%30.21 "Hg4 mi
4:55 AM36 °FFog.14 mph100%30.21 "Hg2 mi
4:25 AM36 °FFog.13 mph100%30.24 "Hg2 mi
3:55 AM36 °FFog.12 mph100%30.24 "Hg2 mi
3:25 AM36 °FFog.12 mph100%30.27 "Hg2 mi
2:55 AM36 °FDrizzle. Overcast.13 mph100%30.27 "Hg2 mi
2:25 AM36 °FPartly cloudy.13 mph100%30.30 "Hg4 mi
1:55 AM36 °FPartly cloudy.13 mph100%30.30 "Hg4 mi
1:25 AM36 °FFog.13 mph100%30.30 "Hg3 mi
12:55 AM36 °FFog.12 mph100%30.30 "Hg2 mi
12:25 AM36 °FFog.13 mph100%30.30 "Hg3 mi
11:55 PM
Jan 25
36 °FFog.9 mph100%30.33 "Hg2 mi
11:25 PM36 °FPartly cloudy.12 mph100%30.33 "Hg2 mi
10:55 PM36 °FPartly cloudy.10 mph100%30.33 "Hg2 mi
10:25 PM36 °FLight rain. Partly cloudy.12 mph100%30.36 "Hg2 mi
9:55 PM36 °FPartly cloudy.10 mph100%30.36 "Hg2 mi
9:25 PM36 °FPartly cloudy.8 mph100%30.36 "Hg2 mi
8:55 PM36 °FLight rain. Partly cloudy.8 mph100%30.36 "Hg2 mi
8:25 PM36 °FLight rain. Overcast.8 mph100%30.36 "Hg2 mi
7:55 PM36 °FDrizzle. Mostly cloudy.9 mph100%30.36 "Hg3 mi
7:25 PM36 °FDrizzle. Mostly cloudy.8 mph100%30.39 "Hg2 mi
6:55 PM36 °FFog.7 mph100%30.39 "Hg2 mi
6:25 PM36 °FPassing clouds.8 mph100%30.39 "Hg3 mi
5:55 PM36 °FPassing clouds.8 mph100%30.39 "Hg2 mi
5:25 PM36 °FLight rain. Mostly cloudy.9 mph100%30.39 "Hg2 mi
4:55 PM36 °FFog.8 mph100%30.39 "Hg1 mi
4:25 PM36 °FDrizzle. Cloudy.10 mph100%30.39 "Hg2 mi
3:55 PM36 °FLight rain. Mostly cloudy.9 mph100%30.39 "Hg1 mi
3:25 PM36 °FLight rain. Broken clouds.9 mph100%30.39 "Hg2 mi
2:55 PM36 °FLight rain. Broken clouds.8 mph100%30.39 "Hg2 mi
2:25 PM36 °FLight rain. Mostly cloudy.8 mph100%30.39 "Hg3 mi
1:55 PM36 °FFog.8 mph93%30.39 "Hg3 mi
1:25 PM36 °FLow clouds.10 mph93%30.39 "Hg4 mi
12:55 PM36 °FMostly cloudy.9 mph93%30.39 "Hg4 mi
12:25 PM36 °FMostly cloudy.9 mph93%30.42 "Hg4 mi
11:55 AM36 °FPartly sunny.12 mph93%30.42 "Hg4 mi
11:25 AM36 °FChilly.10 mph93%30.42 "Hg4 mi
10:55 AM36 °FOvercast.8 mph93%30.42 "Hg4 mi
10:25 AM34 °FFog.8 mph93%30.42 "Hg3 mi
9:55 AM34 °FFog.9 mph93%30.42 "Hg3 mi
9:25 AM34 °FFog.8 mph93%30.42 "Hg3 mi
8:55 AM32 °FIce fog.8 mph100%30.42 "Hg3 mi
8:25 AM32 °FIce fog.8 mph100%30.42 "Hg3 mi
7:55 AM32 °FIce fog.8 mph100%30.39 "Hg3 mi
7:25 AM32 °FIce fog.9 mph100%30.39 "Hg3 mi
Weather by CustomWeather, © 2014

See weather overviewHow to use our weather pages